Weather in Druskininkai

Lithuania     54°00′53″N   23°58′41″E
temp.,
°C
wind,
m/s
gust,
m/s
humid.,
%
clouds,
%
prec.,
mm/h
press.,
hPa
HPBL,
m
6 august, fri
fri600:00+14ene41184100 0.0 1009550
03:00+14ene51284100 0.0 1006568
06:00+13ne51397100 4.9 1003612
09:00+13ne61498100 17.2 1001770
12:00+14ene61296100 6.1 1000697
15:00+16ene41198100 7.6 999583
18:00+16ene5109792 3.1 998543
21:00+16e249877 4.6 997195
7 august, sat
sat700:00+16sse3699100 0.3 998374
03:00+14s3798100 0.3 998438
06:00+13ssw4898100 0.1 999480
09:00+14sw4999100 2.3 1000506
12:00+15wsw4997100 2.3 1002684
15:00+16wsw4109593 2.5 1004780
18:00+18w5108890 2.2 1006827
21:00+16w310939 2.7 1008456
8 august, sun
sun800:00+14sw229660 0.0 101040
03:00+13sw129539 0.0 101114
06:00+12s239427 0.0 101244
09:00+17sse3784100 0.0 1011247
12:00+23se5759100 0.0 1010804
15:00+26sse61154100 0.0 10091681
18:00+25ssw6106377 0.3 10091486
21:00+19sw5118697 0.8 1012629
9 august, mon
mon900:00+16wsw39922 0.0 1014328
03:00+14sw24975 0.0 101683
06:00+14sw259693 0.0 1016115
09:00+18wsw3771100 0.0 1017379
12:00+20sw37615 0.0 1018704
15:00+24wsw464863 0.6 10182083
18:00+22w365763 0.1 1019691
21:00+19ssw247075 0.1 101997
10 august, tue
tue1000:00+16nnw128537 0.0 102024
03:00+14nw0191100 0.0 102010
06:00+14se0091100 0.0 102010
09:00+18s227096 0.0 1020291
12:00+23ssw2347100 0.0 10191048
15:00+24ssw2341100 0.0 10182466
18:00+19sw2567100 0.0 1017163
21:00+17wnw117649 0.1 101713